Wind_Speed
50 50 51 50 50 50 50 51 51 50 49 49 49 48 48 48 46 45 46 47 47 47 47 47 48 49 49 49 49 50 50 51 50 50 51 51 50 51
50 51 51 51 51 52 52 52 52 52 51 49 48 48 48 49 48 47 47 47 48 48 48 48 49 49 50 50 51 51 50 50 50 51 51 51 51 51
51 51 52 51 52 52 52 52 52 52 51 50 49 49 49 49 49 48 48 48 49 49 50 50 50 50 50 50 51 51 50 50 51 51 51 51 52 52
50 50 51 51 51 51 51 51 51 51 50 49 49 48 49 49 49 48 49 49 49 49 50 51 51 51 51 51 52 51 51 50 51 51 52 52 52 52
49 49 49 49 49 49 49 49 49 49 50 49 48 49 49 50 50 49 49 50 51 49 50 51 51 51 51 52 52 51 51 51 51 51 52 52 51 50
49 49 49 49 49 48 48 48 48 49 50 50 50 50 50 50 49 49 50 50 51 50 50 50 49 49 50 51 51 51 50 51 51 52 51 50 49 50
49 48 47 48 48 48 48 47 48 49 49 50 50 50 50 51 50 50 50 49 49 49 50 49 48 48 49 49 49 49 50 50 50 50 49 48 49 48
48 47 47 46 46 47 47 47 47 48 48 49 49 49 50 50 49 49 48 47 47 48 48 47 47 47 47 47 48 49 49 49 48 48 48 47 47 47
46 47 47 47 46 46 46 46 46 46 47 48 49 49 49 48 48 48 47 47 46 45 46 47 47 47 47 48 48 49 48 48 48 48 47 46 46 46
45 46 46 46 46 46 45 44 45 45 45 46 46 47 47 47 47 47 46 46 45 45 45 46 46 45 46 46 46 46 46 46 46 46 45 44 43 43
44 44 44 44 44 43 43 43 42 43 44 44 44 44 44 45 45 45 46 46 45 44 44 44 43 43 43 44 44 44 44 44 43 43 42 41 40 39
42 42 42 42 41 41 42 41 40 41 42 42 42 42 43 43 44 45 45 44 43 42 42 42 42 41 41 42 43 43 42 41 40 39 39 38 37 37
41 41 40 40 39 39 40 39 38 38 39 39 40 40 41 42 42 43 43 42 41 40 40 40 40 40 40 40 40 40 39 38 37 37 37 36 35 34
39 39 38 38 37 37 37 37 37 37 37 38 38 38 39 40 39 39 40 41 40 40 39 38 38 38 39 39 38 37 37 36 36 36 35 34 33 32
38 38 37 37 36 36 36 36 37 37 37 37 37 37 37 37 37 37 37 38 39 38 37 36 37 38 38 37 36 35 35 34 35 34 33 32 31 30
36 35 35 35 35 35 36 36 36 37 37 36 35 35 34 35 35 35 35 35 35 36 35 35 36 36 35 34 34 34 32 31 31 31 31 31 30 30
32 32 33 33 34 34 34 34 35 34 34 33 33 33 33 33 32 32 32 32 33 33 33 35 35 33 32 32 32 31 30 28 28 28 28 28 28 27
30 30 30 31 32 32 32 32 31 32 32 32 32 32 31 30 30 30 29 30 30 31 31 32 32 30 30 29 29 28 27 26 26 25 25 25 25 25
28 28 28 29 29 29 29 29 29 29 29 29 29 29 29 29 28 28 28 28 28 29 29 29 28 28 28 28 27 26 25 24 24 23 23 23 22 22
26 27 27 27 27 27 28 28 27 26 26 26 27 27 27 26 26 26 26 26 26 27 27 26 26 25 25 25 24 24 24 23 22 21 22 21 21 20
25 25 25 26 26 26 26 26 25 25 25 25 25 25 25 25 25 25 25 25 25 25 24 24 24 24 23 23 23 22 22 22 21 21 20 19 18 18
23 23 23 24 24 24 24 24 24 24 24 24 24 24 24 24 24 24 24 24 24 23 23 22 22 21 21 21 20 20 19 20 20 20 19 18 17 16
22 22 22 23 23 23 24 24 24 24 24 24 24 24 24 24 23 23 23 22 22 21 21 20 20 19 18 18 18 17 17 17 17 17 16 16 16 15
Wind_Direction
264 265 266 267 267 268 270 271 272 272 273 274 274 274 274 274 275 276 276 277 278 279 280 280 282 283 285 285 286 286 287 287 286 286 287 288 289 290
265 266 267 268 269 269 271 272 272 274 274 273 274 274 275 274 275 277 277 277 278 279 279 280 281 283 284 284 285 285 286 286 286 286 287 288 289 290
266 266 267 268 268 269 271 272 272 273 273 273 274 275 274 274 274 277 277 277 279 279 279 280 281 282 282 283 284 285 286 285 286 286 287 288 288 290
265 266 267 268 269 270 270 272 272 272 273 274 274 274 273 274 275 277 277 278 279 279 279 280 281 281 281 282 283 284 284 285 286 286 287 288 289 289
266 267 267 268 270 270 270 271 271 272 272 272 273 273 273 274 275 276 277 278 279 279 279 280 279 280 281 281 282 283 284 285 286 288 288 289 289 290
265 267 267 269 269 270 270 271 271 271 272 272 272 273 273 274 274 276 278 279 279 278 278 279 279 280 281 282 282 284 285 285 287 289 289 289 289 290
266 266 267 268 269 269 270 270 271 271 272 273 272 273 273 273 274 276 278 278 278 279 279 279 280 280 282 282 283 284 285 286 288 290 289 289 290 290
265 265 267 268 268 269 270 271 271 272 273 273 272 272 273 274 275 276 277 278 279 280 280 280 281 281 282 283 283 284 285 286 288 288 289 290 289 289
265 265 266 267 267 268 270 271 272 273 273 273 273 272 272 273 274 275 277 278 280 279 279 280 280 279 281 283 283 284 285 286 287 289 290 290 290 289
265 266 266 266 268 268 268 270 272 272 273 273 274 273 273 273 274 275 276 277 279 279 280 281 281 281 283 283 284 285 286 287 289 289 289 289 289 289
266 266 266 266 266 267 268 271 272 271 272 274 274 274 273 274 275 275 276 277 278 279 281 281 282 282 282 283 285 287 287 289 289 289 289 289 289 289
266 266 267 266 266 267 268 271 272 272 274 274 274 275 275 275 275 275 276 278 278 280 280 280 281 283 283 285 286 287 288 288 290 291 291 290 289 289
267 266 265 265 267 268 269 269 271 273 274 274 275 275 276 276 277 277 278 279 279 280 280 281 283 284 285 287 287 286 286 287 289 290 291 291 290 289
268 266 266 266 268 269 268 267 270 273 275 276 275 276 277 279 280 279 279 279 279 281 282 283 285 286 287 288 289 288 288 289 289 289 289 289 289 288
267 266 266 267 268 269 268 267 270 273 275 275 276 278 279 280 280 280 279 279 279 281 284 285 285 286 288 289 289 290 289 289 289 288 288 289 288 289
268 266 266 266 268 269 268 268 270 271 273 275 276 277 279 280 281 281 280 279 281 282 283 284 286 287 289 290 290 290 290 291 289 287 288 289 289 289
268 267 267 267 267 268 267 267 270 271 272 273 275 277 279 281 282 282 281 281 282 283 284 286 287 287 290 291 291 290 290 289 288 287 288 287 288 289
270 270 270 271 269 267 266 267 268 269 271 272 275 277 279 281 283 282 282 284 284 285 287 289 288 290 291 292 291 291 291 291 289 288 289 288 287 289
269 270 270 269 267 265 265 266 267 268 269 271 274 278 280 282 282 282 283 285 286 287 290 290 289 290 292 292 291 292 294 294 290 289 291 291 290 290
269 270 270 268 266 265 265 266 266 267 269 273 277 279 281 282 281 282 284 285 287 289 291 290 290 291 292 292 292 293 294 293 289 290 292 292 290 288
270 269 270 268 267 265 264 264 265 267 270 274 277 279 281 282 281 282 283 285 287 290 291 290 289 291 292 293 294 294 294 293 291 291 293 292 290 288
270 269 269 269 267 265 264 264 265 269 271 275 279 281 281 280 280 280 282 284 286 288 289 289 289 291 293 295 294 294 295 296 296 296 296 295 293 291
269 269 269 268 267 266 265 265 267 270 273 277 280 280 281 280 279 279 280 283 285 287 288 289 291 291 293 295 295 296 297 298 299 301 301 298 297 294
Height
5676 5677 5678 5678 5678 5679 5679 5679 5679 5680 5681 5680 5678 5676 5674 5673 5671 5670 5670 5668 5667 5666 5664 5662 5661 5658 5656 5653 5650 5647 5644 5641 5637 5634 5631 5627 5624 5620
5663 5663 5664 5665 5665 5665 5666 5665 5665 5665 5665 5666 5665 5663 5662 5660 5659 5658 5657 5655 5654 5653 5651 5649 5647 5645 5642 5640 5637 5634 5631 5628 5625 5621 5618 5614 5611 5607
5649 5650 5651 5651 5652 5652 5652 5651 5651 5650 5651 5652 5651 5650 5649 5648 5646 5645 5644 5642 5641 5639 5638 5636 5634 5632 5629 5626 5623 5621 5618 5615 5612 5609 5605 5601 5598 5594
5636 5636 5637 5637 5638 5638 5638 5638 5638 5637 5637 5638 5638 5637 5636 5634 5633 5632 5631 5629 5627 5626 5624 5622 5620 5617 5615 5613 5610 5608 5605 5601 5599 5595 5592 5589 5584 5580
5622 5623 5624 5624 5625 5625 5625 5625 5624 5624 5624 5624 5624 5624 5623 5621 5620 5619 5617 5615 5614 5612 5610 5608 5606 5603 5601 5599 5597 5594 5591 5589 5586 5582 5578 5574 5570 5566
5609 5610 5611 5611 5611 5611 5611 5611 5611 5611 5611 5611 5611 5610 5609 5608 5606 5605 5604 5602 5600 5598 5596 5594 5592 5590 5588 5586 5583 5581 5578 5575 5572 5568 5564 5561 5557 5553
5596 5597 5598 5598 5598 5598 5598 5598 5598 5598 5597 5597 5597 5596 5595 5594 5593 5591 5590 5588 5587 5584 5582 5580 5579 5577 5574 5572 5570 5567 5564 5561 5558 5554 5550 5547 5543 5539
5584 5585 5585 5586 5586 5585 5585 5585 5585 5584 5584 5583 5583 5583 5582 5580 5579 5578 5576 5575 5575 5574 5570 5568 5565 5563 5561 5559 5556 5553 5550 5547 5544 5540 5537 5534 5530 5526
5570 5571 5572 5573 5573 5573 5573 5572 5572 5571 5570 5569 5569 5569 5568 5567 5566 5565 5563 5562 5561 5560 5558 5556 5553 5550 5548 5545 5542 5540 5537 5534 5530 5527 5524 5520 5517 5513
5558 5559 5559 5560 5560 5560 5561 5560 5560 5559 5558 5557 5557 5556 5555 5554 5553 5552 5551 5549 5548 5547 5545 5544 5542 5538 5534 5531 5529 5526 5523 5520 5517 5514 5511 5508 5504 5501
5545 5546 5546 5547 5548 5548 5548 5549 5548 5547 5546 5545 5544 5543 5542 5541 5540 5539 5538 5537 5536 5535 5532 5531 5529 5526 5523 5520 5517 5514 5511 5508 5505 5501 5498 5495 5492 5490
5534 5534 5534 5535 5535 5535 5536 5536 5536 5536 5535 5534 5533 5532 5531 5530 5528 5527 5526 5524 5523 5522 5521 5519 5516 5514 5513 5510 5506 5503 5499 5496 5493 5490 5486 5483 5481 5479
5522 5523 5523 5524 5524 5524 5524 5525 5525 5524 5524 5523 5522 5521 5520 5519 5517 5516 5514 5513 5511 5510 5509 5507 5505 5502 5500 5498 5496 5492 5489 5486 5482 5479 5476 5473 5471 5469
5511 5512 5512 5513 5513 5513 5513 5513 5513 5513 5513 5512 5512 5511 5509 5508 5506 5505 5503 5501 5500 5499 5497 5496 5494 5492 5490 5488 5485 5483 5479 5476 5473 5469 5467 5464 5461 5459
5500 5501 5501 5501 5502 5502 5502 5503 5503 5503 5502 5502 5501 5500 5499 5497 5495 5494 5492 5491 5489 5488 5487 5485 5483 5482 5479 5477 5475 5473 5470 5466 5463 5460 5458 5455 5453 5451
5490 5490 5490 5491 5491 5491 5492 5492 5492 5492 5492 5491 5490 5490 5488 5487 5486 5484 5483 5481 5480 5479 5477 5475 5473 5472 5470 5467 5465 5462 5459 5457 5454 5451 5449 5446 5444 5442
5479 5479 5480 5481 5481 5481 5482 5482 5482 5482 5482 5481 5481 5480 5479 5478 5476 5475 5474 5473 5472 5470 5468 5466 5464 5462 5460 5458 5455 5453 5450 5447 5445 5443 5441 5438 5436 5434
5470 5470 5470 5471 5471 5471 5472 5472 5472 5472 5472 5472 5472 5471 5470 5468 5467 5466 5466 5464 5463 5461 5460 5458 5456 5454 5452 5449 5447 5444 5442 5440 5437 5435 5433 5431 5429 5426
5461 5461 5461 5461 5461 5462 5462 5463 5463 5463 5464 5464 5463 5462 5461 5460 5460 5459 5458 5456 5454 5453 5451 5449 5448 5446 5444 5442 5440 5437 5435 5433 5431 5429 5426 5424 5422 5419
5453 5453 5453 5453 5453 5453 5454 5454 5455 5455 5456 5456 5455 5454 5454 5453 5452 5451 5450 5448 5447 5445 5444 5442 5440 5438 5436 5435 5433 5430 5428 5426 5424 5422 5420 5418 5415 5413
5444 5444 5444 5445 5445 5445 5446 5447 5447 5448 5448 5448 5448 5447 5446 5445 5444 5443 5442 5441 5440 5438 5437 5435 5433 5431 5429 5427 5426 5424 5421 5419 5417 5416 5414 5412 5410 5408
5437 5437 5437 5437 5438 5438 5438 5439 5440 5440 5440 5441 5440 5439 5438 5438 5437 5436 5435 5434 5433 5432 5430 5429 5427 5425 5423 5421 5420 5418 5416 5414 5411 5409 5407 5406 5404 5402
5430 5430 5430 5430 5431 5431 5431 5432 5432 5433 5433 5433 5433 5432 5431 5430 5429 5429 5428 5427 5426 5425 5424 5422 5421 5419 5418 5416 5414 5413 5411 5409 5407 5404 5403 5401 5399 5398